GW5822 Weather Reports


time (UTC)temp
C
wind
direction
speed
KPH
gust
KPH
rain 1hr
cm
rain 24hr
cm
rain mn
cm
humidity
%
barometer
mb
20260504000532 18 288 3.2 9.7 0.00 0.00 0.00 26 1001.3
20260503235547 18 275 4.8 12.9 0.00 0.00 0.00 26 1001.2
20260503234524 18 293 6.4 14.5 0.00 0.00 0.00 25 1001.3
20260503233601 18 277 4.8 12.9 0.00 0.00 0.00 26 1001.4
20260503232518 18 296 3.2 11.3 0.00 0.00 0.00 28 1001.3
20260503231535 18 274 4.8 9.7 0.00 0.00 0.00 27 1001.6
20260503230532 19 284 8.0 14.5 0.00 0.00 0.00 25 1001.7
20260503225529 18 281 6.4 14.5 0.00 0.00 0.00 26 1001.9
20260503224524 18 302 4.8 11.3 0.00 0.00 0.00 25 1002.0
20260503223521 19 296 6.4 14.5 0.00 0.00 0.00 24 1002.0
20260503222517 19 289 11.3 24.1 0.00 0.00 0.00 24 1002.0
20260503221534 19 299 9.7 24.1 0.00 0.00 0.00 24 1002.0
20260503220531 19 281 9.7 27.4 0.00 0.00 0.00 24 1002.1
20260503215528 20 294 6.4 17.7 0.00 0.00 0.00 25 1002.0
20260503214525 19 277 8.0 16.1 0.00 0.00 0.00 26 1002.0
20260503213522 19 270 6.4 12.9 0.00 0.00 0.00 26 1002.1
20260503212519 18 279 8.0 22.5 0.00 0.00 0.00 26 1002.3
20260503211535 19 280 6.4 17.7 0.00 0.00 0.00 26 1002.2
20260503210533 18 317 6.4 17.7 0.00 0.00 0.00 27 1002.4
20260503205550 18 284 6.4 17.7 0.00 0.00 0.00 27 1002.5
20260503204525 18 292 9.7 20.9 0.00 0.00 0.00 27 1002.8
20260503203522 18 293 12.9 20.9 0.00 0.00 0.00 26 1002.9
20260503202519 18 296 8.0 14.5 0.00 0.00 0.00 27 1003.0
20260503201537 18 299 9.7 20.9 0.00 0.00 0.00 26 1003.0
20260503200534 18 280 6.4 17.7 0.00 0.00 0.00 27 1003.2
20260503195530 18 298 8.0 20.9 0.00 0.00 0.00 27 1003.3
20260503194526 17 298 9.7 20.9 0.00 0.00 0.00 27 1003.5
20260503193523 17 299 8.0 22.5 0.00 0.00 0.00 26 1003.5
20260503192520 17 292 9.7 19.3 0.00 0.00 0.00 25 1003.7
20260503191557 17 284 9.7 20.9 0.00 0.00 0.00 26 1003.7
20260503190533 17 292 8.0 20.9 0.00 0.00 0.00 25 1003.7
20260503185530 17 275 9.7 24.1 0.00 0.00 0.00 24 1003.7
20260503184547 17 308 6.4 20.9 0.00 0.00 0.00 23 1003.8
20260503183523 16 283 8.0 20.9 0.00 0.00 0.00 23 1004.1
20260503182520 16 288 8.0 14.5 0.00 0.00 0.00 22 1004.0
20260503181537 17 288 8.0 16.1 0.00 0.00 0.00 23 1004.2
20260503180535 16 275 6.4 11.3 0.00 0.00 0.00 24 1004.3
20260503175530 17 303 9.7 25.7 0.00 0.00 0.00 24 1004.2
20260503174548 16 285 8.0 19.3 0.00 0.00 0.00 24 1004.3
20260503173523 17 276 9.7 25.7 0.00 0.00 0.00 23 1004.4
20260503172520 17 6 6.4 17.7 0.00 0.00 0.00 22 1004.4
20260503171558 16 305 8.0 17.7 0.00 0.00 0.00 24 1004.4
20260503170535 16 292 9.7 24.1 0.00 0.00 0.00 28 1004.5
20260503150533 14 298 8.0 16.1 0.00 0.00 0.00 49 1004.6
20260503130552 11 296 4.8 19.3 0.00 0.00 0.00 64 1004.5
20260503110533 2 214 1.6 4.8 0.00 0.00 0.00 93 1003.9
20260503081517 6 53 3.2 8.0 0.00 0.00 0.00 82 1004.4
20260503080534 6 137 1.6 6.4 0.00 0.00 0.00 81 1004.5
20260503072521 8 124 1.6 3.2 0.00 0.00 0.00 75 1004.9
20260503071519 8 32 1.6 6.4 0.00 0.00 0.00 75 1005.0
20260503070535 8 105 0.0 3.2 0.00 0.00 0.00 76 1005.0
20260503054528 10 127 1.6 3.2 0.00 0.00 0.00 74 1006.1
20260503053525 10 137 1.6 3.2 0.00 0.00 0.00 74 1006.2
20260503052523 10 131 1.6 4.8 0.00 0.00 0.00 72 1006.2
20260503051519 10 141 0.0 3.2 0.00 0.00 0.00 72 1006.3
20260503050537 10 137 0.0 3.2 0.00 0.00 0.00 71 1006.5
20260503045532 10 150 1.6 4.8 0.00 0.00 0.00 72 1006.5
20260503044529 10 170 0.0 3.2 0.00 0.00 0.00 75 1006.6
20260503043546 10 121 0.0 3.2 0.00 0.00 0.00 73 1006.8
20260503042523 10 0.0 1.6 0.00 0.00 0.00 71 1006.8
20260503041519 11 127 1.6 4.8 0.00 0.00 0.00 69 1006.7
20260503040537 11 125 1.6 4.8 0.00 0.00 0.00 69 1006.9
20260503035533 11 123 1.6 4.8 0.00 0.00 0.00 65 1007.1
20260503034530 11 117 0.0 3.2 0.00 0.00 0.00 64 1007.3
20260503033527 12 115 1.6 3.2 0.00 0.00 0.00 61 1007.3
20260503032543 12 166 0.0 4.8 0.00 0.00 0.00 59 1007.6
20260503031520 12 281 3.2 6.4 0.00 0.00 0.00 58 1007.8
20260503030558 13 280 3.2 8.0 0.00 0.00 0.00 57 1008.0
20260503025533 13 283 6.4 16.1 0.00 0.00 0.00 53 1008.0
20260503024530 13 285 3.2 8.0 0.00 0.00 0.00 52 1007.9
20260503023527 13 297 3.2 8.0 0.00 0.00 0.00 50 1007.9
20260503022523 14 301 4.8 9.7 0.00 0.00 0.00 48 1007.9
20260503021519 14 293 3.2 11.3 0.00 0.00 0.00 46 1007.8
20260503020535 14 273 3.2 8.0 0.00 0.00 0.00 45 1007.7
20260503015531 14 294 1.6 6.4 0.00 0.00 0.00 44 1007.6
20260503014547 15 263 1.6 8.0 0.00 0.00 0.00 42 1007.5
20260503013525 15 290 4.8 16.1 0.00 0.00 0.00 42 1007.5
20260503012521 15 261 3.2 12.9 0.00 0.00 0.00 41 1007.3
20260503011538 15 219 4.8 8.0 0.00 0.00 0.00 41 1007.5
20260503010535 15 258 3.2 6.4 0.00 0.00 0.00 41 1007.4
20260503005652 15 289 3.2 9.7 0.00 0.00 0.00 40 1007.2
20260503004529 15 240 0.0 3.2 0.00 0.00 0.00 40 1007.2
20260503003546 15 343 3.2 9.7 0.00 0.00 0.00 38 1007.2
20260503002522 15 132 3.2 6.4 0.00 0.00 0.00 38 1007.3
20260503001519 16 137 3.2 9.7 0.00 0.00 0.00 38 1007.3